#timestamp,LO_Frequency,Hit,StdDev 
1512781215.4,286046993.4,N
1512781235.2,286046999.5,N
1512781255.1,286046997.9,N
1512781256.0,286046997.9,N
1512781275.8,286046994.2,N
1512781295.7,286046993.8,N
1512781315.5,286046990.1,Y
1512781335.3,286046994.5,P
1512781355.2,286046995.5,P
1512781375.0,286046992.7,P
1512781375.9,286046992.7,Y
1512781395.8,286046994.9,P
1512781415.6,286047001.0,P
1512781435.4,286046996.7,N
1512781455.3,286046995.5,N
1512781475.1,286046996.5,N
1512781495.9,286047002.8,N
1512781515.7,286047003.3,N
1512781535.5,286047003.9,N
1512781555.4,286047004.7,N
1512781575.2,286047002.4,N
1512781595.0,286047001.2,N
1512781595.9,286047001.2,N
1512781615.8,286046997.9,N
1512781635.6,286046998.1,N
1512781655.5,286046998.4,N
1512781675.3,286047000.0,N
1512781695.1,286047004.4,N
1512781715.9,286047002.8,N
1512781735.7,286047000.4,N
1512781755.6,286046994.2,N
1512781775.4,286046997.8,N
1512781795.2,286047000.8,N
1512781815.1,286046999.4,N
1512781816.0,286046999.4,N
1512781835.8,286046998.6,N
1512781855.6,286046996.5,N
1512781875.5,286046993.9,N
1512781895.3,286046992.3,N
1512781915.2,286046996.2,N
1512781935.9,286046994.5,N
1512781955.7,286046996.8,N
1512781975.6,286046993.5,N
1512781995.4,286046994.6,N
1512782015.3,286046991.7,N
1512782035.1,286046995.7,N
1512782036.0,286046995.7,N
1512782055.8,286046990.3,N
1512782075.7,286046991.9,N
1512782095.5,286046996.4,N
1512782115.4,286046994.2,N
1512782135.2,286046991.3,N
1512782155.0,286046991.7,N
1512782155.9,286046991.7,N
1512782175.8,286046992.0,N
1512782195.6,286046993.4,N
1512782215.4,286046996.4,N
1512782235.3,286046997.7,N
1512782255.1,286046998.0,N
1512782275.9,286046993.8,N
1512782295.7,286046993.2,N
1512782315.5,286046987.0,Y
1512782335.4,286046995.6,P
1512782355.2,286046995.6,P
1512782375.1,286047000.0,N
1512782376.0,286047000.0,N
1512782395.8,286047003.6,N
1512782415.6,286047001.7,N
1512782435.5,286047005.7,N
1512782455.3,286047007.3,N
1512782475.2,286047004.7,N
1512782495.9,286047004.0,N
1512782515.7,286047003.2,N
1512782535.6,286047005.9,N
1512782555.4,286047004.4,N
1512782575.2,286047002.7,N
1512782595.1,286047002.4,N
1512782596.0,286047002.4,N
1512782615.8,286046999.8,N
1512782635.7,286047001.3,N
1512782655.5,286047002.9,N
1512782675.3,286047003.1,N
1512782695.2,286047002.5,N
1512782715.0,286047000.7,N
1512782715.9,286047000.7,N
1512782735.8,286047001.1,N
1512782755.6,286047000.2,N
1512782775.4,286047005.8,N
1512782795.3,286047005.7,N
1512782815.1,286047005.4,N
1512782835.8,286047003.6,N
1512782855.7,286047001.1,N
1512782875.5,286046999.8,N
1512782895.4,286047002.7,N
1512782915.2,286047001.2,N
1512782935.0,286047001.6,N
1512782935.9,286047001.6,N
1512782955.8,286046998.8,N
1512782975.6,286047002.0,N
1512782995.5,286047000.1,N
1512783015.3,286047002.2,N
1512783035.1,286047001.3,N
1512783055.9,286047003.7,N
1512783075.7,286046998.8,N
1512783095.6,286047001.8,N
1512783115.4,286047001.6,N
1512783165.3,286047006.4,E
1512783175.2,286047001.7,N
1512783195.0,286046998.1,P
1512783195.9,286046998.1,N
1512783215.8,286046998.0,N
1512783235.6,286046998.0,N
1512783255.4,286046995.9,N
1512783275.3,286046998.7,N
1512783295.1,286046992.1,Y
1512783315.8,286046995.3,P
1512783335.7,286046993.5,P
1512783355.5,286046999.4,N
1512783375.4,286046997.5,N
1512783395.2,286047002.1,N
1512783415.0,286047006.4,N
1512783415.9,286047006.4,N
1512783435.8,286047001.8,N
1512783455.6,286047002.4,N
1512783475.5,286047011.9,N
1512783495.3,286047006.2,N
1512783545.2,286047004.6,E
1512783555.1,286047004.4,N
1512783556.0,286047004.4,P
1512783575.8,286046998.5,P
1512783595.7,286046997.2,N
1512783615.5,286046998.1,N
1512783635.3,286046995.5,N
1512783655.2,286047000.0,N
1512783675.0,286046998.7,N
1512783675.9,286046998.7,N
1512783695.8,286046996.8,N
1512783715.6,286046998.6,N
1512783735.4,286047000.0,N
1512783755.3,286047002.5,N
1512783775.1,286047000.3,N
1512783795.9,286047005.6,N
1512783815.7,286047005.9,N
1512783835.5,286047002.6,N
1512783855.4,286047000.1,N
1512783875.2,286046998.3,N
1512783895.0,286047002.2,N
1512783895.9,286047002.2,N
1512783915.8,286046998.5,N
1512783935.6,286046999.2,N
1512783955.5,286046996.6,N
1512783975.3,286046996.7,N
1512783995.1,286046998.2,N
1512784015.9,286046995.0,N
1512784035.7,286046997.2,N
1512784055.6,286046998.6,N
1512784075.4,286047002.4,N
1512784095.2,286046996.9,N
1512784115.1,286046993.7,N
1512784116.0,286046993.7,N
1512784135.8,286047000.4,N
1512784155.6,286046996.5,N
1512784175.5,286046993.6,N
1512784195.3,286046999.6,N
1512784215.2,286046999.2,N
1512784235.9,286046995.4,N
1512784255.7,286046998.0,N
1512784275.6,286046995.2,N
1512784295.4,286046996.7,N
1512784315.2,286046999.8,N
1512784335.1,286046999.1,N
1512784336.0,286046999.1,N
1512784355.8,286047000.8,N
1512784375.7,286046994.2,N
1512784395.5,286046994.1,N
1512784415.3,286046990.6,Y
1512784435.2,286046992.3,P
1512784455.0,286046987.3,P
1512784455.9,286046987.3,N
1512784475.8,286046992.7,N
1512784495.6,286046994.0,N
1512784515.4,286046999.5,N
1512784535.3,286046994.1,N
1512784555.1,286046998.0,N
1512784575.9,286046994.0,N
1512784595.7,286046990.6,N
1512784615.5,286046991.4,N
1512784635.4,286046992.4,N
1512784655.2,286046993.1,N
1512784675.0,286046991.9,N
1512784676.0,286046991.9,N
1512784695.8,286046996.2,N
1512784715.6,286046993.3,N
1512784735.5,286046997.8,N
1512784755.3,286046995.3,N
1512784775.1,286047000.6,N
1512784795.9,286047000.9,N
